Regional Weather Roundup
Issued by NWS Northern Indiana

Home | Current Version | Previous Version | Text Only | Print | Product List | Glossary On
Versions: 1 2 3 4 5 6 7 8 9 10 11 12 13 14 15 16 17 18 19 20 21 22 23 24 25 26 27 28 29 30 31 32 33 34 35 36 37 38 39 40 41 42 43 44 45 46 47 48 49 50
000
ASUS43 KIWX 250110
RWRIWX

KIWX WEATHER ROUNDUP
NATIONAL WEATHER SERVICE NORTHERN INDIANA
900 PM EDT THU JUL 24 2014

NOTE: "FAIR" INDICATES FEW OR NO CLOUDS BELOW 12,000 FEET WITH NO
SIGNIFICANT WEATHER AND/OR OBSTRUCTIONS TO VISIBILITY.

* THESE STATIONS ARE NOT UNDER NWS QUALITY CONTROL. THEY ALSO MAY NOT
  REPORT WEATHER SUCH AS PRECIPITATION OR FOG.

INZ001>027-250200-
NORTHERN INDIANA

CITY           SKY/WX    TMP DP  RH WIND       PRES   REMARKS
GARY*          PTCLDY    64  52  63 NE5       30.11R
VALPARAISO     CLEAR     62  51  67 N3        30.10R
MICHIGAN CITY* CLEAR     61  50  67 CALM      30.10S
LAPORTE*       CLEAR     61  51  68 N5        30.10R
KNOX*          CLEAR     63  55  75 N5        30.08S
SOUTH BEND     CLEAR     65  52  62 NW5       30.09S
ELKHART*       CLEAR     66  52  59 NW5       30.09R
GOSHEN         CLOUDY    68  57  68 NE3       30.07S
MONTICELLO*    MOCLDY    68  56  65 CALM      30.06S
LOGANSPORT*    CLEAR     64  54  68 CALM      30.08R
ROCHESTER*     CLEAR     70  54  56 CALM      30.08S
WARSAW*        CLEAR     68  54  60 CALM      30.07S
ANGOLA*        CLEAR     66  55  68 CALM      30.08S
FORT WAYNE     MOCLDY    70  54  56 S3        30.07S
HUNTINGTON*    CLOUDY    69  55  61 CALM      30.06S
PERU/GRISSOM   CLEAR     69  55  60 NW6       30.07S
MARION*        MOCLDY    69  54  59 CALM      30.08R

$$
INZ028>050-250200-
CENTRAL INDIANA

CITY           SKY/WX    TMP DP  RH WIND       PRES   REMARKS
LAFAYETTE      CLEAR     68  53  58 N5        30.06S
KOKOMO*        CLEAR     70  55  60 NW5       30.07R
MUNCIE*        CLEAR     66  53  63 E5        30.07S
INDIANAPOLIS   PTCLDY    70  50  49 N7        30.06S

$$
MIZ043>046-050>051-056>058-064>065-071>073-077>080-250200-
SOUTHWEST LOWER MICHIGAN

CITY           SKY/WX    TMP DP  RH WIND       PRES   REMARKS
BATTLE CREEK   CLEAR     70  51  51 NE3       30.07F
BENTON HARBOR  CLEAR     61  50  67 CALM      30.09S
COLDWATER*     PTCLDY    68  55  61 CALM      30.07F
HILLSDALE*     PTCLDY    66  54  66 CALM      30.09S
HOLLAND        CLEAR     63  47  55 W5        30.09F
GRAND RAPIDS   PTCLDY    68  50  52 W7        30.07F
KALAMAZOO      CLEAR     66  51  58 NW8       30.08S
STURGIS*         N/A     64  59  82 CALM      30.06F
THREE RIVERS*  FAIR      67  57  69 NW5       30.08S

$$
OHZ001>008-015>018-024>025-250200-
NORTHWEST OHIO

CITY           SKY/WX    TMP DP  RH WIND       PRES   REMARKS
WAUSEON*       CLOUDY    68  54  60 N5        30.07S
DEFIANCE       PTCLDY    69  54  58 CALM      30.07R
FINDLAY        CLEAR     67  51  56 E5        30.07R
TOLEDO EXPRESS MOCLDY    66  52  60 S5        30.07R
TOLEDO METCALF CLEAR     67  52  58 E3        30.07R
LIMA           CLEAR     67  54  63 NE3       30.09R

$$
&&



USA.gov is the U.S. government's official web portal to all federal, state and local government web resources and services.